TimePDT,TemperatureF,Dew PointF,Humidity,Sea Level PressureIn,VisibilityMPH,Wind Direction,Wind SpeedMPH,Gust SpeedMPH,PrecipitationIn,Events,Conditions,WindDirDegrees,DateUTC
12:56 AM,57.9,19.9,23,29.87,10.0,South,8.1,-,N/A,,Partly Cloudy,190,2012-11-01 07:56:00
1:56 AM,55.9,18.0,23,29.87,10.0,WSW,5.8,-,N/A,,Mostly Cloudy,250,2012-11-01 08:56:00
2:56 AM,52.0,19.0,27,29.87,10.0,ENE,4.6,-,N/A,,Scattered Clouds,70,2012-11-01 09:56:00
3:56 AM,48.9,24.1,38,29.88,10.0,NE,3.5,-,N/A,,Partly Cloudy,40,2012-11-01 10:56:00
4:56 AM,48.9,21.9,35,29.89,10.0,NE,3.5,-,N/A,,Mostly Cloudy,40,2012-11-01 11:56:00
5:56 AM,50.0,21.9,33,29.90,10.0,NE,3.5,-,N/A,,Overcast,40,2012-11-01 12:56:00
6:17 AM,48.2,24.8,40,29.98,10.0,North,5.8,-,N/A,,Overcast,350,2012-11-01 13:17:00
6:56 AM,50.0,23.0,35,29.90,10.0,North,4.6,-,N/A,,Overcast,350,2012-11-01 13:56:00
7:56 AM,51.1,23.0,33,29.91,10.0,SE,5.8,-,N/A,,Overcast,130,2012-11-01 14:56:00
8:56 AM,53.1,24.1,32,29.92,10.0,Calm,Calm,-,N/A,,Mostly Cloudy,0,2012-11-01 15:56:00
9:56 AM,55.0,28.9,37,29.94,10.0,North,4.6,-,N/A,,Mostly Cloudy,360,2012-11-01 16:56:00
10:56 AM,57.0,35.1,44,29.95,10.0,WNW,4.6,-,N/A,,Overcast,290,2012-11-01 17:56:00
11:56 AM,57.9,35.1,42,29.94,10.0,Variable,3.5,-,N/A,,Mostly Cloudy,0,2012-11-01 18:56:00
12:56 PM,59.0,35.1,41,29.94,10.0,West,4.6,-,N/A,,Mostly Cloudy,270,2012-11-01 19:56:00
1:56 PM,60.1,35.1,39,29.92,10.0,WSW,4.6,-,N/A,,Mostly Cloudy,250,2012-11-01 20:56:00
2:56 PM,62.1,34.0,35,29.92,10.0,WNW,4.6,-,N/A,,Mostly Cloudy,300,2012-11-01 21:56:00
3:56 PM,62.1,35.1,37,29.93,10.0,WNW,10.4,-,N/A,,Mostly Cloudy,290,2012-11-01 22:56:00
4:56 PM,61.0,35.1,38,29.93,10.0,WNW,9.2,-,N/A,,Mostly Cloudy,290,2012-11-01 23:56:00
5:56 PM,57.9,33.1,39,29.93,10.0,West,5.8,-,N/A,,Mostly Cloudy,270,2012-11-02 00:56:00
6:56 PM,55.0,32.0,42,29.95,10.0,WNW,6.9,-,N/A,,Mostly Cloudy,290,2012-11-02 01:56:00
7:56 PM,48.0,30.0,50,29.96,10.0,South,8.1,-,N/A,,Scattered Clouds,170,2012-11-02 02:56:00
8:56 PM,45.0,30.9,58,29.96,10.0,West,6.9,-,N/A,,Partly Cloudy,280,2012-11-02 03:56:00
9:56 PM,37.9,26.1,62,29.98,10.0,Calm,Calm,-,N/A,,Partly Cloudy,0,2012-11-02 04:56:00
10:56 PM,39.9,27.0,60,29.98,10.0,Calm,Calm,-,N/A,,Clear,0,2012-11-02 05:56:00
11:56 PM,37.0,27.0,67,29.99,10.0,WSW,6.9,-,N/A,,Clear,250,2012-11-02 06:56:00